Penn Yan, NY
on Wednesday, December 6, 2017

Wednesday
       
Previous Day Next Day
Daily Summary
 ActualAverage (WUND)Record (WUND)
Temperature
Mean Temperature °F °C °F °C  
Max Temperature 37°F 3°C °F °C °F °C (-1)
Min Temperature 30°F -1°C °F °C °F °C (-1)
Degree Days
Heating Degree Days 32    
Moisture
Dew Point 17°F -8°C   
Average Humidity 49    
Maximum Humidity 57    
Minimum Humidity 36    
Precipitation
Precipitation 0.00 in / 0.00 cm in / cm in / cm ()
Wind
Wind Speed 17 mph / 27 km/h   
Max Wind Speed 25 mph / 40 km/h   
Max Gust Speed 39 mph / 63 km/h   
Visibility 10 miles / 16 kilometers   
Events     
Averages and records for this station are not official NWS values.
Key: T is trace of precipitation, MM is missing value
Source: NWS Daily Summary
Time(EST)TemperatureDew PointHumidity Pressure Visibility Wind DirectionWind SpeedGust SpeedPrecipitationEvents Conditions
12:53 AM 36.0°F 2.2°C 21.0°F -6.1°C 55% 29.86 in / 1011.1 hPa 10.0 miles / 16.1 kilometers West 25.3 mph / 40.7 km/h 39.1 mph / 63.0 km/h N/A   Clear
1:53 AM 35.1°F 1.7°C 17.1°F -8.3°C 48% 29.89 in / 1012.1 hPa 10.0 miles / 16.1 kilometers WSW 19.6 mph / 31.5 km/h 31.1 mph / 50.0 km/h N/A   Clear
2:53 AM 35.1°F 1.7°C 17.1°F -8.3°C 48% 29.91 in / 1012.7 hPa 10.0 miles / 16.1 kilometers SW 20.7 mph / 33.3 km/h 31.1 mph / 50.0 km/h N/A   Overcast
3:53 AM 33.1°F 0.6°C 15.1°F -9.4°C 48% 29.91 in / 1012.8 hPa 10.0 miles / 16.1 kilometers SSW 15.0 mph / 24.1 km/h 28.8 mph / 46.3 km/h N/A   Overcast
4:53 AM 33.1°F 0.6°C 16.0°F -8.9°C 50% 29.92 in / 1013.1 hPa 10.0 miles / 16.1 kilometers SW 16.1 mph / 25.9 km/h 27.6 mph / 44.4 km/h N/A   Overcast
5:53 AM 33.1°F 0.6°C 15.1°F -9.4°C 48% 29.94 in / 1013.6 hPa 10.0 miles / 16.1 kilometers SSW 15.0 mph / 24.1 km/h 25.3 mph / 40.7 km/h N/A   Overcast
6:53 AM 32.0°F 0.0°C 14.0°F -10.0°C 48% 29.94 in / 1013.7 hPa 10.0 miles / 16.1 kilometers SSW 15.0 mph / 24.1 km/h 24.2 mph / 38.9 km/h N/A   Overcast
7:53 AM 30.9°F -0.6°C 14.0°F -10.0°C 50% 29.95 in / 1014.1 hPa 10.0 miles / 16.1 kilometers SSW 16.1 mph / 25.9 km/h 24.2 mph / 38.9 km/h N/A   Clear
8:53 AM 32.0°F 0.0°C 14.0°F -10.0°C 48% 29.95 in / 1014.2 hPa 10.0 miles / 16.1 kilometers SW 15.0 mph / 24.1 km/h - N/A   Clear
9:53 AM 33.1°F 0.6°C 12.9°F -10.6°C 43% 29.95 in / 1014.0 hPa 10.0 miles / 16.1 kilometers SW 12.7 mph / 20.4 km/h - N/A   Clear
10:53 AM 35.1°F 1.7°C 10.9°F -11.7°C 37% 29.93 in / 1013.5 hPa 10.0 miles / 16.1 kilometers SW 16.1 mph / 25.9 km/h 20.7 mph / 33.3 km/h N/A   Clear
11:53 AM 37.0°F 2.8°C 12.0°F -11.1°C 36% 29.91 in / 1012.9 hPa 10.0 miles / 16.1 kilometers SW 12.7 mph / 20.4 km/h 24.2 mph / 38.9 km/h N/A   Clear
12:53 PM 37.0°F 2.8°C 14.0°F -10.0°C 39% 29.90 in / 1012.5 hPa 10.0 miles / 16.1 kilometers SW 12.7 mph / 20.4 km/h - N/A   Overcast
1:53 PM 37.0°F 2.8°C 18.0°F -7.8°C 46% 29.89 in / 1012.2 hPa 10.0 miles / 16.1 kilometers SW 15.0 mph / 24.1 km/h 20.7 mph / 33.3 km/h N/A   Overcast
2:53 PM 37.0°F 2.8°C 19.0°F -7.2°C 48% 29.89 in / 1012.0 hPa 10.0 miles / 16.1 kilometers SW 12.7 mph / 20.4 km/h - N/A   Mostly Cloudy
3:53 PM 37.9°F 3.3°C 19.9°F -6.7°C 48% 29.90 in / 1012.3 hPa 10.0 miles / 16.1 kilometers SW 15.0 mph / 24.1 km/h 21.9 mph / 35.2 km/h N/A   Overcast
4:53 PM 36.0°F 2.2°C 19.9°F -6.7°C 52% 29.88 in / 1011.7 hPa 10.0 miles / 16.1 kilometers SSW 15.0 mph / 24.1 km/h 20.7 mph / 33.3 km/h N/A   Mostly Cloudy
5:53 PM 36.0°F 2.2°C 19.9°F -6.7°C 52% 29.88 in / 1011.6 hPa 10.0 miles / 16.1 kilometers SSW 13.8 mph / 22.2 km/h - N/A   Clear
6:53 PM 36.0°F 2.2°C 21.0°F -6.1°C 55% 29.88 in / 1011.8 hPa 10.0 miles / 16.1 kilometers SSW 8.1 mph / 13.0 km/h - N/A   Clear
7:53 PM 36.0°F 2.2°C 21.0°F -6.1°C 55% 29.88 in / 1011.6 hPa 10.0 miles / 16.1 kilometers SSW 15.0 mph / 24.1 km/h - N/A   Clear
8:53 PM 36.0°F 2.2°C 21.9°F -5.6°C 57% 29.88 in / 1011.7 hPa 10.0 miles / 16.1 kilometers SW 8.1 mph / 13.0 km/h - N/A   Overcast
9:53 PM 37.0°F 2.8°C 21.0°F -6.1°C 52% 29.89 in / 1012.1 hPa 10.0 miles / 16.1 kilometers SW 6.9 mph / 11.1 km/h - N/A   Overcast
10:53 PM 37.0°F 2.8°C 19.9°F -6.7°C 50% 29.90 in / 1012.3 hPa 10.0 miles / 16.1 kilometers WSW 15.0 mph / 24.1 km/h - N/A   Overcast
11:53 PM 37.0°F 2.8°C 21.0°F -6.1°C 52% 29.91 in / 1012.7 hPa 10.0 miles / 16.1 kilometers WSW 10.4 mph / 16.7 km/h - N/A   Overcast